Haines, AK

5:06 PM AKDT on October 22, 2017 (GMT -0800)
Haines

Weather History for PAHN - December, 2011

Change the Weather History Date:

Sunday, December 18, 2011

  Actual Average Record
Temperature  
Mean Temperature 32 °F -  
Max Temperature 37 °F 31 °F 46 °F (2004)
Min Temperature 27 °F 24 °F 0 °F (2012)
Degree Days  
Heating Degree Days 33    
Moisture  
Dew Point 32 °F    
Average Humidity 89    
Maximum Humidity 96    
Minimum Humidity 81    
Precipitation  
Precipitation 0.49 in - - ()
Sea Level Pressure  
Sea Level Pressure 29.82 in    
Wind  
Wind Speed 13 mph (East)    
Max Wind Speed 23 mph    
Max Gust Speed 40 mph    
Visibility 8 miles    
Events Rain , Snow    
Averages and records for this station are not official NWS values.
T = Trace of Precipitation, MM = Missing Value Source: NWS Daily Summary

Daily Weather History Graph

Daily Weather History Graph

Search for Another Location

Airport or City:

Trip Planner

Search our weather history database for the weather conditions in past years. The results will help you decide how hot, cold, wet, or windy it might be!

Date:

Astronomy

Dec. 18, 2011 Rise Set
Actual Time 8:54 AM AKST 3:02 PM AKST
Civil Twilight 7:59 AM AKST 3:57 PM AKST
Nautical Twilight 7:04 AM AKST 4:52 PM AKST
Astronomical Twilight 6:14 AM AKST 5:43 PM AKST
Moon 12:46 AM AKST (12/18) 11:41 AM AKST (12/18)
Length of Visible Light 7h 57m
Length of Day
6h 07m
Last Quarter, 41% of the Moon is Illuminated
Dec 18
Last Quarter
Dec 24
New
Dec 31
First Quarter
Jan 8
Full
Jan 16
Last Quarter

Hourly Weather History & Observations

Time (AKST) Temp. Windchill Dew Point Humidity Pressure Visibility Wind Dir Wind Speed Gust Speed Precip Events Conditions
12:54 AM 28.0 °F 16.5 °F 26.1 °F 92% 30.12 in 10.0 mi West 15.0 mph - N/A   Overcast
1:54 AM 28.0 °F 19.3 °F 27.0 °F 96% 30.11 in 8.0 mi West 9.2 mph - 0.00 in Snow Light Snow
2:54 AM 28.0 °F 18.6 °F 26.1 °F 92% 30.11 in 5.0 mi West 10.4 mph - 0.00 in Snow Light Snow
3:54 AM 27.0 °F 17.3 °F 25.0 °F 92% 30.11 in 5.0 mi WNW 10.4 mph - 0.00 in Snow Light Snow
4:54 AM 30.0 °F - 28.0 °F 92% 30.09 in 10.0 mi Calm Calm - 0.01 in   Overcast
5:54 AM 36.0 °F 30.3 °F 32.0 °F 86% 30.07 in 10.0 mi East 6.9 mph 18.4 mph N/A   Overcast
6:29 AM 35.6 °F 28.0 °F 32.0 °F 87% 30.05 in 10.0 mi ESE 10.4 mph 25.3 mph N/A   Mostly Cloudy
6:54 AM 35.1 °F 27.4 °F 30.9 °F 85% 30.05 in 10.0 mi East 10.4 mph 19.6 mph N/A   Mostly Cloudy
7:27 AM 35.6 °F 27.1 °F 30.2 °F 81% 30.04 in 10.0 mi East 12.7 mph 24.2 mph N/A   Partly Cloudy
7:43 AM 35.6 °F 27.1 °F 30.2 °F 81% 30.04 in 10.0 mi ESE 12.7 mph 23.0 mph N/A   Mostly Cloudy
7:51 AM 35.6 °F 27.5 °F 30.2 °F 81% 30.04 in 10.0 mi East 11.5 mph - N/A   Scattered Clouds
7:54 AM 36.0 °F 28.0 °F 30.9 °F 82% 30.04 in 10.0 mi ESE 11.5 mph - N/A   Mostly Cloudy
8:54 AM 36.0 °F 28.0 °F 30.9 °F 82% 30.02 in 10.0 mi East 11.5 mph 20.7 mph 0.00 in   Mostly Cloudy
9:45 AM 35.6 °F 25.9 °F 30.2 °F 81% 29.98 in 10.0 mi East 16.1 mph 23.0 mph 0.00 in   Overcast
9:54 AM 36.0 °F 28.0 °F 30.9 °F 82% 29.98 in 10.0 mi East 11.5 mph 24.2 mph 0.00 in   Overcast
10:21 AM 35.6 °F 26.6 °F 30.2 °F 81% 29.95 in 10.0 mi East 13.8 mph 26.5 mph 0.00 in   Overcast
10:30 AM 35.6 °F 26.6 °F 32.0 °F 87% 29.95 in 10.0 mi ESE 13.8 mph 26.5 mph 0.00 in Rain Light Rain
10:54 AM 35.1 °F 26.4 °F 32.0 °F 89% 29.93 in 10.0 mi East 12.7 mph 24.2 mph 0.00 in Rain Light Rain
11:11 AM 35.6 °F 25.5 °F 33.8 °F 93% 29.90 in 7.0 mi East 17.3 mph 28.8 mph 0.00 in Snow Light Snow
11:54 AM 35.1 °F 24.1 °F 33.1 °F 92% 29.88 in 7.0 mi ESE 19.6 mph 27.6 mph 0.03 in Rain Light Rain
12:54 PM 35.1 °F 23.5 °F 33.1 °F 92% 29.82 in 6.0 mi East 21.9 mph 34.5 mph 0.05 in Rain Light Rain
1:22 PM 35.6 °F 25.2 °F 33.8 °F 93% 29.78 in 2.5 mi ENE 18.4 mph 34.5 mph 0.03 in Snow Light Snow
1:35 PM 35.6 °F 25.2 °F 33.8 °F 93% 29.76 in 1.8 mi ENE 18.4 mph 35.7 mph 0.04 in Snow Light Snow
1:54 PM 35.1 °F 24.5 °F 33.1 °F 92% 29.75 in 1.5 mi ENE 18.4 mph 33.4 mph 0.07 in Snow Light Snow
2:54 PM 35.1 °F 25.2 °F 33.1 °F 92% 29.70 in 2.5 mi ENE 16.1 mph 32.2 mph 0.08 in Snow Light Snow
3:13 PM 35.6 °F 25.2 °F 33.8 °F 93% 29.68 in 4.0 mi East 18.4 mph 28.8 mph 0.03 in Snow Light Snow
3:36 PM 35.6 °F 24.0 °F 33.8 °F 93% 29.67 in 3.0 mi East 23.0 mph 31.1 mph 0.07 in Snow Light Snow
3:54 PM 35.1 °F 25.9 °F 33.1 °F 92% 29.65 in 6.0 mi East 13.8 mph 28.8 mph 0.09 in Snow Light Snow
4:54 PM 35.1 °F 24.5 °F 33.1 °F 92% 29.60 in 4.0 mi East 18.4 mph 27.6 mph 0.07 in Snow Light Snow
5:13 PM 35.6 °F 26.6 °F 33.8 °F 93% 29.57 in 5.0 mi East 13.8 mph 27.6 mph 0.03 in Snow Light Snow
5:38 PM 35.6 °F 25.5 °F 33.8 °F 93% 29.55 in 5.0 mi East 17.3 mph 31.1 mph 0.05 in Snow Light Snow
5:54 PM 35.1 °F 24.8 °F 33.1 °F 92% 29.55 in 6.0 mi East 17.3 mph 32.2 mph 0.06 in Snow Light Snow
6:47 PM 35.6 °F 25.2 °F 33.8 °F 93% 29.52 in 6.0 mi East 18.4 mph 34.5 mph 0.02 in Rain Light Rain
6:54 PM 35.1 °F 24.5 °F 33.1 °F 92% 29.53 in 7.0 mi East 18.4 mph 31.1 mph 0.02 in Rain Light Rain
7:20 PM 35.6 °F 24.0 °F 33.8 °F 93% 29.53 in 10.0 mi ESE 23.0 mph 35.7 mph 0.00 in Rain Light Rain
7:54 PM 36.0 °F 25.3 °F 34.0 °F 93% 29.56 in 10.0 mi ESE 19.6 mph 40.3 mph 0.01 in Rain Light Rain
8:43 PM 37.4 °F 27.2 °F 33.8 °F 87% 29.59 in 10.0 mi ESE 19.6 mph 34.5 mph 0.00 in   Overcast
8:54 PM 37.0 °F 27.0 °F 34.0 °F 89% 29.60 in 10.0 mi ESE 18.4 mph 32.2 mph 0.00 in   Overcast
9:54 PM 37.9 °F 29.2 °F 35.1 °F 89% 29.63 in 10.0 mi ESE 15.0 mph 25.3 mph 0.00 in Rain Light Rain
10:34 PM 37.4 °F 31.4 °F 35.6 °F 93% 29.63 in 10.0 mi ESE 8.1 mph - 0.00 in   Overcast
10:54 PM 37.9 °F 32.1 °F 34.0 °F 86% 29.65 in 10.0 mi ESE 8.1 mph 21.9 mph 0.00 in Rain Light Rain
11:54 PM 37.9 °F 31.5 °F 34.0 °F 86% 29.66 in 10.0 mi East 9.2 mph 17.3 mph 0.00 in   Overcast